When you browse on this site, cookies collect data to enhance your experience and personalize the content and advertising you see.
Visit our Privacy Policy to learn more. By continuing to use the site, you agree to this use of cookies and data.

Stündliche Wetter Veraval

Heute, 5 August, Mittwoch

Zeit Temperatur Niederschläge Wind Luftdruck Luftfeuchtigkeit
00:00 +29°C° 1 mm 6 m/S 745 mmHg 90%
01:00 +29°C° 1 mm 6 m/S 745 mmHg 90%
02:00 +29°C° 1 mm 6 m/S 745 mmHg 90%
03:00 +29°C° 1 mm 6 m/S 745 mmHg 89%
04:00 +29°C° 1 mm 6 m/S 745 mmHg 89%
05:00 +29°C° 0 mm 6 m/S 744 mmHg 90%
06:00 +30°C° 1.5 mm 6 m/S 745 mmHg 88%
07:00 +30°C° 1.5 mm 7 m/S 745 mmHg 86%
08:00 +30°C° 1.5 mm 7 m/S 746 mmHg 84%
09:00 +30°C° 2.7 mm 7 m/S 746 mmHg 84%
10:00 +32°C° 2.7 mm 7 m/S 746 mmHg 84%
11:00 +32°C° 0 mm 6 m/S 746 mmHg 82%
12:00 +30°C° 6.2 mm 6 m/S 746 mmHg 85%
13:00 +30°C° 6.2 mm 5 m/S 746 mmHg 88%
14:00 +29°C° 6.2 mm 5 m/S 746 mmHg 92%
15:00 +29°C° 2.5 mm 6 m/S 745 mmHg 91%
16:00 +29°C° 2.5 mm 6 m/S 745 mmHg 90%
17:00 +30°C° 2.5 mm 7 m/S 745 mmHg 89%
18:00 +29°C° 0.3 mm 6 m/S 745 mmHg 90%
19:00 +29°C° 0.3 mm 6 m/S 746 mmHg 90%
20:00 +29°C° 0.3 mm 6 m/S 746 mmHg 91%
21:00 +29°C° 0.1 mm 6 m/S 746 mmHg 91%
22:00 +29°C° 0.1 mm 6 m/S 746 mmHg 90%
23:00 +29°C° 0.1 mm 6 m/S 746 mmHg 90%

Morgen, 6 August, Donnerstag

Zeit Temperatur Niederschläge Wind Luftdruck Luftfeuchtigkeit
00:00 +29°C° 1 mm 6 m/S 746 mmHg 91%
01:00 +29°C° 1 mm 6 m/S 746 mmHg 92%
02:00 +29°C° 1 mm 7 m/S 745 mmHg 92%
03:00 +29°C° 1.8 mm 7 m/S 745 mmHg 92%
04:00 +29°C° 1.8 mm 8 m/S 745 mmHg 92%
05:00 +29°C° 1.8 mm 8 m/S 744 mmHg 92%
06:00 +29°C° 5.3 mm 9 m/S 745 mmHg 93%
07:00 +29°C° 5.3 mm 10 m/S 746 mmHg 94%
08:00 +28°C° 5.3 mm 11 m/S 746 mmHg 94%
09:00 +29°C° 5 mm 11 m/S 746 mmHg 94%
10:00 +29°C° 5 mm 11 m/S 746 mmHg 93%
11:00 +29°C° 5 mm 11 m/S 746 mmHg 92%
12:00 +29°C° 4.4 mm 11 m/S 746 mmHg 92%
13:00 +28°C° 4.4 mm 11 m/S 745 mmHg 92%
14:00 +28°C° 4.4 mm 11 m/S 745 mmHg 91%
15:00 +28°C° 2.4 mm 10 m/S 745 mmHg 92%
16:00 +28°C° 2.4 mm 9 m/S 745 mmHg 93%
17:00 +28°C° 2.4 mm 9 m/S 745 mmHg 93%
18:00 +28°C° 1.5 mm 8 m/S 745 mmHg 93%
19:00 +28°C° 1.5 mm 8 m/S 745 mmHg 94%
20:00 +28°C° 1.5 mm 8 m/S 746 mmHg 94%
21:00 +28°C° 0.9 mm 8 m/S 746 mmHg 94%
22:00 +28°C° 0.9 mm 7 m/S 746 mmHg 93%
23:00 +28°C° 0.9 mm 7 m/S 747 mmHg 93%

übermorgen, 7 August, Freitag

Zeit Temperatur Niederschläge Wind Luftdruck Luftfeuchtigkeit
00:00 +28°C° 0.8 mm 7 m/S 746 mmHg 93%
01:00 +28°C° 0.8 mm 6 m/S 746 mmHg 93%
02:00 +28°C° 0.8 mm 6 m/S 746 mmHg 93%
03:00 +28°C° 0.7 mm 5 m/S 746 mmHg 92%
04:00 +28°C° 0.7 mm 5 m/S 746 mmHg 92%
05:00 +28°C° 0.7 mm 4 m/S 746 mmHg 92%
06:00 +29°C° 0.4 mm 5 m/S 746 mmHg 90%
07:00 +29°C° 0.4 mm 5 m/S 747 mmHg 88%
08:00 +30°C° 0.4 mm 6 m/S 748 mmHg 86%
09:00 +32°C° 0.7 mm 7 m/S 748 mmHg 84%
10:00 +32°C° 0.7 mm 8 m/S 748 mmHg 81%
11:00 +33°C° 0.7 mm 10 m/S 748 mmHg 79%
12:00 +33°C° 0.3 mm 10 m/S 748 mmHg 78%
13:00 +33°C° 0.3 mm 11 m/S 748 mmHg 77%
14:00 +33°C° 0.3 mm 11 m/S 748 mmHg 76%
15:00 +33°C° 0.2 mm 11 m/S 748 mmHg 77%
16:00 +32°C° 0.2 mm 10 m/S 748 mmHg 78%
17:00 +32°C° 0.2 mm 10 m/S 748 mmHg 79%
18:00 +32°C° 0.1 mm 10 m/S 748 mmHg 81%
19:00 +31°C° 0.1 mm 9 m/S 749 mmHg 82%
20:00 +31°C° 0.1 mm 9 m/S 749 mmHg 84%
21:00 +31°C° 0.1 mm 9 m/S 750 mmHg 84%
22:00 +31°C° 0.1 mm 9 m/S 750 mmHg 84%
23:00 +31°C° 0.1 mm 9 m/S 750 mmHg 85%

8 August, Samstag

Zeit Temperatur Niederschläge Wind Luftdruck Luftfeuchtigkeit
00:00 +31°C° 0.1 mm 8 m/S 750 mmHg 85%
01:00 +29°C° 0.1 mm 8 m/S 750 mmHg 85%
02:00 +29°C° 0.1 mm 8 m/S 750 mmHg 85%
03:00 +29°C° 0.2 mm 8 m/S 749 mmHg 86%
04:00 +29°C° 0.2 mm 8 m/S 749 mmHg 86%
05:00 +29°C° 0.2 mm 8 m/S 749 mmHg 86%
06:00 +31°C° 0.1 mm 8 m/S 750 mmHg 84%
07:00 +31°C° 0.1 mm 8 m/S 750 mmHg 82%
08:00 +32°C° 0.1 mm 8 m/S 751 mmHg 80%
09:00 +32°C° 0.2 mm 8 m/S 751 mmHg 78%
10:00 +33°C° 0.2 mm 9 m/S 751 mmHg 76%
11:00 +34°C° 0.2 mm 9 m/S 751 mmHg 73%
12:00 +34°C° 0.1 mm 9 m/S 751 mmHg 73%
13:00 +34°C° 0.1 mm 9 m/S 750 mmHg 73%
14:00 +34°C° 0.1 mm 10 m/S 750 mmHg 72%
15:00 +33°C° 0.1 mm 10 m/S 749 mmHg 73%
16:00 +33°C° 0.1 mm 10 m/S 749 mmHg 74%
17:00 +32°C° 0.1 mm 10 m/S 749 mmHg 75%
18:00 +32°C° 0.1 mm 9 m/S 749 mmHg 78%
19:00 +31°C° 0.1 mm 9 m/S 749 mmHg 80%
20:00 +31°C° 0.1 mm 9 m/S 750 mmHg 83%
21:00 +31°C° 0.2 mm 8 m/S 750 mmHg 84%
22:00 +31°C° 0.2 mm 8 m/S 751 mmHg 84%
23:00 +29°C° 0.2 mm 8 m/S 751 mmHg 85%

9 August, Sonntag

Zeit Temperatur Niederschläge Wind Luftdruck Luftfeuchtigkeit
00:00 +29°C° 0.2 mm 8 m/S 751 mmHg 85%
01:00 +29°C° 0.2 mm 8 m/S 750 mmHg 85%
02:00 +29°C° 0.2 mm 8 m/S 750 mmHg 85%
03:00 +29°C° 0.5 mm 8 m/S 750 mmHg 85%
04:00 +29°C° 0.5 mm 8 m/S 749 mmHg 86%
05:00 +29°C° 0.5 mm 8 m/S 749 mmHg 86%
06:00 +29°C° 0.3 mm 8 m/S 750 mmHg 84%
07:00 +31°C° 0.3 mm 8 m/S 750 mmHg 83%
08:00 +31°C° 0.3 mm 8 m/S 750 mmHg 81%
09:00 +32°C° 0.4 mm 9 m/S 750 mmHg 80%
10:00 +32°C° 0.4 mm 9 m/S 751 mmHg 78%
11:00 +33°C° 0.4 mm 9 m/S 751 mmHg 77%
12:00 +33°C° 0.4 mm 9 m/S 750 mmHg 76%
13:00 +33°C° 0.4 mm 9 m/S 750 mmHg 76%
14:00 +33°C° 0.4 mm 9 m/S 749 mmHg 75%
15:00 +33°C° 0.2 mm 9 m/S 749 mmHg 76%
16:00 +32°C° 0.2 mm 9 m/S 749 mmHg 77%
17:00 +32°C° 0.2 mm 9 m/S 749 mmHg 78%
18:00 +32°C° 0.4 mm 9 m/S 749 mmHg 80%
19:00 +31°C° 0.4 mm 8 m/S 749 mmHg 83%
20:00 +29°C° 0.4 mm 8 m/S 750 mmHg 85%
21:00 +29°C° 0.6 mm 8 m/S 750 mmHg 86%
22:00 +29°C° 0.5 mm 8 m/S 750 mmHg 86%
23:00 +29°C° 0.5 mm 8 m/S 750 mmHg 87%

10 August, Montag

Zeit Temperatur Niederschläge Wind Luftdruck Luftfeuchtigkeit
00:00 +29°C° 0.8 mm 7 m/S 750 mmHg 87%
01:00 +29°C° 0.8 mm 7 m/S 750 mmHg 88%
02:00 +29°C° 0.8 mm 7 m/S 749 mmHg 88%
03:00 +29°C° 0.5 mm 7 m/S 749 mmHg 88%
04:00 +29°C° 0.5 mm 6 m/S 749 mmHg 89%
05:00 +29°C° 0.5 mm 6 m/S 749 mmHg 89%
06:00 +29°C° 0.3 mm 6 m/S 750 mmHg 87%
07:00 +30°C° 0.3 mm 7 m/S 750 mmHg 85%
08:00 +30°C° 0.3 mm 7 m/S 750 mmHg 83%
09:00 +32°C° 0.7 mm 7 m/S 750 mmHg 82%
10:00 +32°C° 0.7 mm 8 m/S 750 mmHg 80%
11:00 +33°C° 0.7 mm 8 m/S 750 mmHg 78%
12:00 +33°C° 0.7 mm 8 m/S 750 mmHg 77%
13:00 +33°C° 0.7 mm 8 m/S 750 mmHg 76%
14:00 +33°C° 0.7 mm 8 m/S 750 mmHg 76%
15:00 +33°C° 0.6 mm 8 m/S 749 mmHg 78%
16:00 +32°C° 0.6 mm 8 m/S 749 mmHg 80%
17:00 +32°C° 0.6 mm 8 m/S 749 mmHg 82%
18:00 +31°C° 0.4 mm 8 m/S 749 mmHg 83%
19:00 +31°C° 0.4 mm 8 m/S 750 mmHg 85%
20:00 +29°C° 0.4 mm 8 m/S 750 mmHg 87%
21:00 +29°C° 0.5 mm 8 m/S 750 mmHg 87%
22:00 +29°C° 0.5 mm 7 m/S 751 mmHg 87%
23:00 +29°C° 0.5 mm 7 m/S 751 mmHg 88%
Mehr zeigen